Stanton, MN

6:05 AM CDT on March 30, 2017 (GMT -0500)
Stanton

Weather History for KSYN - February, 2014

Change the Weather History Date:

Saturday, February 22, 2014

  Actual Average (KLVN) Record (KLVN)
Temperature  
Mean Temperature 8 °F -  
Max Temperature 14 °F 33 °F 60 °F (2017)
Min Temperature 2 °F 16 °F -14 °F (1952)
Degree Days  
Heating Degree Days 57    
Moisture  
Dew Point 3 °F    
Average Humidity 70    
Maximum Humidity 78    
Minimum Humidity 63    
Precipitation  
Precipitation 0.00 in - - ()
Sea Level Pressure  
Sea Level Pressure 29.97 in    
Wind  
Wind Speed 11 mph (West)    
Max Wind Speed 16 mph    
Max Gust Speed 21 mph    
Visibility 10 miles    
Events      
Averages and records for this station are not official NWS values.
T = Trace of Precipitation, MM = Missing Value Source: NWS Daily Summary

Daily Weather History Graph

Daily Weather History Graph

Search for Another Location

Airport or City:

Trip Planner

Search our weather history database for the weather conditions in past years. The results will help you decide how hot, cold, wet, or windy it might be!

Date:

Astronomy

Feb. 22, 2014 Rise Set
Actual Time 7:01 AM CST 5:50 PM CST
Civil Twilight 6:31 AM CST 6:20 PM CST
Nautical Twilight 5:57 AM CST 6:54 PM CST
Astronomical Twilight 5:24 AM CST 7:27 PM CST
Moon 1:02 AM CST (2/22) 10:55 AM CST (2/22)
Length of Visible Light 11h 48m
Length of Day
10h 49m
Waning Gibbous, 50% of the Moon is Illuminated
Feb 22
Waning Gibbous
Mar 1
New
Mar 8
First Quarter
Mar 16
Full
Mar 23
Last Quarter

Hourly Weather History & Observations

Time (CST) Temp. Windchill Dew Point Humidity Pressure Visibility Wind Dir Wind Speed Gust Speed Precip Events Conditions
12:12 AM 13.1 °F -2.0 °F 5.5 °F 72% 29.78 in 10.0 mi West 13.8 mph 17.3 mph N/A   Clear
12:32 AM 12.7 °F -0.4 °F 5.4 °F 72% 29.78 in 10.0 mi West 10.4 mph - N/A   Clear
12:52 AM 12.6 °F -0.6 °F 5.5 °F 74% 29.79 in 10.0 mi West 10.4 mph - N/A   Clear
1:12 AM 12.0 °F -2.7 °F 5.4 °F 75% 29.80 in 10.0 mi West 12.7 mph - N/A   Clear
1:32 AM 11.5 °F -2.7 °F 5.2 °F 76% 29.81 in 10.0 mi West 11.5 mph - N/A   Clear
1:52 AM 11.1 °F -3.2 °F 4.6 °F 75% 29.82 in 10.0 mi West 11.5 mph 17.3 mph N/A   Clear
2:12 AM 10.4 °F -3.3 °F 4.1 °F 76% 29.82 in 10.0 mi West 10.4 mph - N/A   Clear
2:32 AM 10.4 °F -4.1 °F 3.7 °F 74% 29.82 in 10.0 mi West 11.5 mph - N/A   Clear
2:52 AM 9.9 °F -4.0 °F 3.2 °F 74% 29.82 in 10.0 mi West 10.4 mph - N/A   Clear
3:12 AM 9.5 °F -4.4 °F 2.8 °F 74% 29.83 in 10.0 mi West 10.4 mph - N/A   Clear
3:32 AM 8.6 °F -4.7 °F 2.1 °F 75% 29.83 in 10.0 mi West 9.2 mph - N/A   Clear
3:52 AM 8.6 °F -5.5 °F 1.9 °F 74% 29.84 in 10.0 mi West 10.4 mph - N/A   Clear
4:12 AM 8.6 °F -4.7 °F 1.8 °F 74% 29.85 in 10.0 mi West 9.2 mph - N/A   Clear
4:32 AM 8.2 °F -4.1 °F 1.4 °F 74% 29.86 in 10.0 mi West 8.1 mph - N/A   Clear
4:52 AM 7.9 °F -4.6 °F 1.4 °F 75% 29.87 in 10.0 mi West 8.1 mph - N/A   Clear
5:12 AM 8.2 °F -3.0 °F 1.4 °F 74% 29.87 in 10.0 mi West 6.9 mph - N/A   Clear
5:32 AM 6.8 °F -5.9 °F 0.3 °F 75% 29.89 in 10.0 mi WSW 8.1 mph - N/A   Clear
5:52 AM 2.5 °F -11.1 °F -3.1 °F 78% 29.90 in 10.0 mi SW 8.1 mph - N/A   Clear
6:12 AM 4.6 °F -9.5 °F -1.1 °F 77% 29.90 in 10.0 mi WSW 9.2 mph - N/A   Clear
6:32 AM 5.7 °F -9.1 °F -0.4 °F 76% 29.92 in 10.0 mi WSW 10.4 mph - N/A   Clear
6:52 AM 5.5 °F -7.4 °F -0.6 °F 76% 29.93 in 10.0 mi WSW 8.1 mph - N/A   Clear
7:12 AM 5.4 °F -7.6 °F -0.9 °F 75% 29.93 in 10.0 mi WSW 8.1 mph - N/A   Clear
7:32 AM 5.5 °F -1.5 °F -1.1 °F 74% 29.95 in 10.0 mi WSW 3.5 mph - N/A   Clear
7:52 AM 5.2 °F -6.7 °F -1.3 °F 75% 29.95 in 10.0 mi WSW 6.9 mph - N/A   Clear
8:12 AM 6.1 °F -6.8 °F -0.9 °F 73% 29.96 in 10.0 mi WSW 8.1 mph - N/A   Clear
8:32 AM 7.0 °F -4.5 °F -0.6 °F 71% 29.95 in 10.0 mi WSW 6.9 mph - N/A   Clear
8:52 AM 8.2 °F -5.1 °F 0.3 °F 70% 29.95 in 10.0 mi West 9.2 mph - N/A   Clear
9:12 AM 8.4 °F -2.8 °F 0.3 °F 70% 29.96 in 10.0 mi WSW 6.9 mph - N/A   Clear
9:32 AM 9.1 °F -3.0 °F 0.7 °F 69% 29.97 in 10.0 mi WSW 8.1 mph - N/A   Clear
9:52 AM 10.2 °F -1.7 °F 1.4 °F 68% 29.98 in 10.0 mi West 8.1 mph - N/A   Clear
10:12 AM 10.8 °F -4.3 °F 1.4 °F 66% 29.98 in 10.0 mi West 12.7 mph - N/A   Clear
10:32 AM 11.1 °F -3.2 °F 1.6 °F 66% 29.99 in 10.0 mi West 11.5 mph - N/A   Clear
10:52 AM 11.7 °F -2.5 °F 2.1 °F 66% 29.98 in 10.0 mi West 11.5 mph - N/A   Clear
11:12 AM 12.2 °F -2.5 °F 2.1 °F 64% 29.99 in 10.0 mi West 12.7 mph - N/A   Clear
11:32 AM 12.6 °F -0.6 °F 2.5 °F 64% 29.99 in 10.0 mi West 10.4 mph - N/A   Clear
11:52 AM 13.1 °F -1.4 °F 3.2 °F 65% 29.98 in 10.0 mi West 12.7 mph - N/A   Clear
12:12 PM 13.6 °F 0.0 °F 3.6 °F 64% 29.98 in 7.0 mi West 11.5 mph - N/A   Clear
12:32 PM 14.0 °F 1.2 °F 3.7 °F 64% 29.98 in 10.0 mi West 10.4 mph - N/A   Clear
12:52 PM 14.4 °F -0.4 °F 4.1 °F 64% 29.98 in 7.0 mi West 13.8 mph - N/A   Clear
1:12 PM 14.7 °F 1.4 °F 4.1 °F 63% 29.98 in 10.0 mi West 11.5 mph - N/A   Clear
1:32 PM 14.7 °F -1.1 °F 4.5 °F 64% 29.98 in 10.0 mi West 16.1 mph - N/A   Clear
1:51 PM 14.7 °F -1.1 °F 4.1 °F 63% 29.99 in 10.0 mi West 16.1 mph 20.7 mph N/A   Clear
2:12 PM 14.9 °F 0.3 °F 4.6 °F 64% 29.99 in 10.0 mi West 13.8 mph - N/A   Clear
2:32 PM 14.4 °F -1.0 °F 4.1 °F 64% 29.99 in 10.0 mi West 15.0 mph 20.7 mph N/A   Clear
2:52 PM 14.2 °F -1.2 °F 4.5 °F 65% 30.00 in 10.0 mi West 15.0 mph 20.7 mph N/A   Clear
3:11 PM 14.4 °F 1.6 °F 4.3 °F 64% 30.00 in 10.0 mi West 10.4 mph - N/A   Clear
3:32 PM 14.5 °F 0.5 °F 4.5 °F 64% 30.00 in 10.0 mi West 12.7 mph - N/A   Clear
3:52 PM 14.5 °F 1.9 °F 4.8 °F 65% 30.00 in 10.0 mi West 10.4 mph - N/A   Clear
4:12 PM 14.2 °F 1.4 °F 4.6 °F 66% 30.01 in 10.0 mi West 10.4 mph - N/A   Clear
4:32 PM 14.0 °F -0.8 °F 4.8 °F 67% 30.01 in 10.0 mi West 13.8 mph - N/A   Clear
4:51 PM 13.6 °F 0.0 °F 4.8 °F 68% 30.01 in 10.0 mi West 11.5 mph - N/A   Clear
5:12 PM 13.6 °F 0.0 °F 5.0 °F 68% 30.02 in 10.0 mi West 11.5 mph - N/A   Clear
5:32 PM 13.3 °F 0.3 °F 5.0 °F 70% 30.02 in 10.0 mi West 10.4 mph - N/A   Clear
5:51 PM 12.7 °F 0.4 °F 4.8 °F 71% 30.02 in 10.0 mi West 9.2 mph - N/A   Clear
6:12 PM 12.6 °F 0.2 °F 5.0 °F 72% 30.03 in 10.0 mi West 9.2 mph - N/A   Clear
6:32 PM 12.2 °F 0.7 °F 4.8 °F 72% 30.03 in 10.0 mi WSW 8.1 mph - N/A   Clear
6:52 PM 11.1 °F -0.6 °F 4.3 °F 74% 30.05 in 10.0 mi WSW 8.1 mph - N/A   Clear
7:12 PM 10.9 °F -0.8 °F 4.3 °F 75% 30.05 in 10.0 mi West 8.1 mph - N/A   Clear
7:32 PM 11.1 °F -0.6 °F 4.6 °F 75% 30.06 in 10.0 mi West 8.1 mph - N/A   Clear
7:52 PM 10.9 °F -3.4 °F 4.1 °F 74% 30.06 in 10.0 mi West 11.5 mph - N/A   Clear
8:12 PM 10.4 °F -3.3 °F 4.1 °F 76% 30.07 in 10.0 mi West 10.4 mph - N/A   Clear
8:32 PM 10.4 °F -3.3 °F 3.6 °F 74% 30.07 in 10.0 mi West 10.4 mph - N/A   Clear
8:52 PM 10.9 °F -3.4 °F 3.4 °F 72% 30.08 in 10.0 mi West 11.5 mph - N/A   Clear
9:12 PM 10.2 °F -4.3 °F 2.5 °F 71% 30.08 in 10.0 mi West 11.5 mph - N/A   Clear
9:32 PM 10.2 °F -5.7 °F 1.6 °F 68% 30.09 in 10.0 mi WNW 13.8 mph - N/A   Clear
9:52 PM 11.1 °F -4.5 °F 1.9 °F 67% 30.09 in 10.0 mi WNW 13.8 mph - N/A   Clear
10:12 PM 10.2 °F -3.5 °F 1.6 °F 68% 30.10 in 10.0 mi West 10.4 mph - N/A   Clear
10:32 PM 9.7 °F -4.2 °F 1.6 °F 70% 30.10 in 10.0 mi West 10.4 mph - N/A   Clear
10:52 PM 10.2 °F -1.7 °F 2.1 °F 70% 30.12 in 10.0 mi West 8.1 mph - N/A   Clear
11:12 PM 9.5 °F -4.4 °F 1.9 °F 71% 30.12 in 10.0 mi West 10.4 mph - N/A   Clear
11:31 PM 9.5 °F -4.4 °F 1.9 °F 71% 30.12 in 10.0 mi West 10.4 mph - N/A   Clear
11:52 PM 9.5 °F -5.9 °F 1.8 °F 71% 30.13 in 10.0 mi WNW 12.7 mph - N/A   Clear